FW2617 Weather Reports


Display with metric or nautical units.
time (UTC)temp
F
wind
direction
speed
MPH
gust
MPH
rain 1hr
in
rain 24hr
in
rain mn
in
humidity
%
barometer
mb
20260905193604 103 143 2.0 7.0 0.00 0.00 0.00 39 1009.1
20260905192704 102 69 2.0 5.0 0.00 0.00 0.00 40 1009.2
20260905191804 101 102 2.0 7.0 0.00 0.00 0.00 41 1009.3
20260905190904 99 290 3.0 9.0 0.00 0.00 0.00 40 1009.4
20260905190004 100 211 3.0 8.0 0.00 0.00 0.00 39 1009.7
20260905185404 100 205 2.0 8.0 0.00 0.00 0.00 41 1009.8
20260905184504 100 242 2.0 8.0 0.00 0.00 0.00 41 1009.9
20260905183625 99 160 3.0 10.0 0.00 0.00 0.00 42 1010.1
20260905182704 100 58 3.0 10.0 0.00 0.00 0.00 43 1010.2
20260905181804 100 108 2.0 6.0 0.00 0.00 0.00 43 1010.3
20260905180904 98 124 3.0 9.0 0.00 0.00 0.00 45 1010.5
20260905180004 97 166 2.0 8.0 0.00 0.00 0.00 47 1010.6
20260905175404 96 194 2.0 7.0 0.00 0.00 0.00 47 1010.7
20260905174504 96 167 1.0 5.0 0.00 0.00 0.00 47 1010.9
20260905173604 96 180 4.0 11.0 0.00 0.00 0.00 47 1011.0
20260905172725 96 161 3.0 8.0 0.00 0.00 0.00 47 1011.1
20260905171804 95 168 3.0 9.0 0.00 0.00 0.00 48 1011.2
20260905170926 95 125 2.0 7.0 0.00 0.00 0.00 49 1011.3
20260905170025 94 199 4.0 11.0 0.00 0.00 0.00 51 1011.3
20260905165425 94 280 3.0 11.0 0.00 0.00 0.00 52 1011.3
20260905164525 93 257 3.0 8.0 0.00 0.00 0.00 52 1011.3
20260905163604 93 192 4.0 10.0 0.00 0.00 0.00 53 1011.5
20260905162725 92 187 3.0 7.0 0.00 0.00 0.00 55 1011.4
20260905161825 91 199 3.0 7.0 0.00 0.00 0.00 58 1011.4
20260905160904 90 195 3.0 7.0 0.00 0.00 0.00 58 1011.4
20260905160004 89 192 2.0 7.0 0.00 0.00 0.00 59 1011.4
20260905155404 89 204 3.0 6.0 0.00 0.00 0.00 60 1011.4
20260905154504 89 186 3.0 11.0 0.00 0.00 0.00 60 1011.4
20260905153604 88 165 3.0 8.0 0.00 0.00 0.00 61 1011.4
20260905152704 87 183 2.0 6.0 0.00 0.00 0.00 63 1011.3
20260905151825 87 180 3.0 7.0 0.00 0.00 0.00 64 1011.3
20260905150904 86 182 3.0 6.0 0.00 0.00 0.00 65 1011.3
20260905150004 85 190 3.0 6.0 0.00 0.00 0.00 67 1011.3
20260905145404 84 196 2.0 5.0 0.00 0.00 0.00 69 1011.3
20260905144504 84 200 2.0 5.0 0.00 0.00 0.00 72 1011.3
20260905143604 83 202 3.0 7.0 0.00 0.00 0.00 75 1011.3
20260905142704 82 199 3.0 7.0 0.00 0.00 0.00 77 1011.4
20260905141804 81 191 2.0 6.0 0.00 0.00 0.00 79 1011.3
20260905140904 80 203 1.0 4.0 0.00 0.00 0.00 82 1011.4
20260905140005 80 189 2.0 4.0 0.00 0.00 0.00 83 1011.3
20260905135404 79 197 1.0 5.0 0.00 0.00 0.00 84 1011.2
20260905134504 79 175 1.0 5.0 0.00 0.00 0.00 84 1011.1
20260905133604 78 179 1.0 4.0 0.00 0.00 0.00 85 1011.0
20260905132704 78 187 2.0 5.0 0.00 0.00 0.00 85 1010.9
20260905131825 77 174 2.0 6.0 0.00 0.00 0.00 86 1011.0
20260905130904 76 168 2.0 6.0 0.00 0.00 0.00 87 1010.8
20260905130025 76 166 2.0 5.0 0.00 0.00 0.00 87 1010.7
20260905125425 76 166 2.0 6.0 0.00 0.00 0.00 87 1010.9
20260905124504 76 176 0.0 4.0 0.00 0.00 0.00 87 1010.8
20260905123604 76 0 0.0 0.0 0.00 0.00 0.00 87 1010.9
20260905122704 76 0 0.0 0.0 0.00 0.00 0.00 86 1010.8
20260905121826 76 0 0.0 0.0 0.00 0.00 0.00 86 1010.9
20260905120904 76 0 0.0 0.0 0.00 0.00 0.00 86 1010.8
20260905120004 76 0 0.0 0.0 0.00 0.00 0.00 85 1010.8
20260905115405 76 0 0.0 0.0 0.00 0.00 0.00 85 1010.6
20260905114525 76 0 0.0 0.0 0.00 0.00 0.00 85 1010.7
20260905113604 76 0 0.0 0.0 0.00 0.00 0.00 85 1010.6
20260905112704 76 0 0.0 0.0 0.00 0.00 0.00 85 1010.6
20260905111804 76 0 0.0 0.0 0.00 0.00 0.00 85 1010.5
20260905110904 77 0 0.0 0.0 0.00 0.00 0.00 85 1010.5
20260905110004 77 0 0.0 0.0 0.00 0.00 0.00 84 1010.5
20260905105425 77 0 0.0 0.0 0.00 0.00 0.00 84 1010.5
20260905104504 77 0 0.0 0.0 0.00 0.00 0.00 84 1010.4
20260905103604 77 0 0.0 0.0 0.00 0.00 0.00 84 1010.4
20260905102705 77 0 0.0 0.0 0.00 0.00 0.00 83 1010.3
20260905101825 77 0 0.0 0.0 0.00 0.00 0.00 83 1010.3
20260905100905 77 159 0.0 4.0 0.00 0.00 0.00 83 1010.4
20260905100025 77 0 0.0 0.0 0.00 0.00 0.00 83 1010.4
20260905095404 78 207 0.0 1.0 0.00 0.00 0.00 83 1010.4
20260905094504 78 207 0.0 2.0 0.00 0.00 0.00 82 1010.5
20260905093604 78 204 0.0 3.0 0.00 0.00 0.00 82 1010.5
20260905092704 78 210 0.0 3.0 0.00 0.00 0.00 81 1010.3
20260905091804 78 194 0.0 3.0 0.00 0.00 0.00 82 1010.3
20260905090904 78 0 0.0 0.0 0.00 0.00 0.00 81 1010.2
20260905090004 78 0 0.0 0.0 0.00 0.00 0.00 81 1010.3
20260905085425 78 0 0.0 0.0 0.00 0.00 0.00 80 1010.2
20260905084504 78 173 0.0 3.0 0.00 0.00 0.00 80 1010.2
20260905083604 78 175 1.0 4.0 0.00 0.00 0.00 80 1010.1
20260905082725 79 167 1.0 4.0 0.00 0.00 0.00 80 1010.1
20260905081825 79 159 1.0 4.0 0.00 0.00 0.00 79 1010.1
20260905080904 79 154 0.0 4.0 0.00 0.00 0.00 79 1010.1
20260905080025 79 0 0.0 0.0 0.00 0.00 0.00 79 1010.2
20260905075404 79 0 0.0 0.0 0.00 0.00 0.00 78 1010.1
20260905074525 80 177 0.0 2.0 0.00 0.00 0.00 78 1010.1
20260905073604 80 185 0.0 4.0 0.00 0.00 0.00 78 1010.0
20260905072704 80 196 1.0 4.0 0.00 0.00 0.00 77 1010.1
20260905071804 80 184 1.0 4.0 0.00 0.00 0.00 77 1010.2
20260905070904 80 182 1.0 4.0 0.00 0.00 0.00 76 1010.3
20260905070004 81 180 1.0 4.0 0.00 0.00 0.00 76 1010.4
20260905065425 81 174 1.0 4.0 0.00 0.00 0.00 75 1010.5
20260905064504 81 206 0.0 3.0 0.00 0.00 0.00 75 1010.6
20260905063604 81 201 0.0 3.0 0.00 0.00 0.00 74 1010.6
20260905062725 82 193 0.0 3.0 0.00 0.00 0.00 74 1010.7
20260905061804 82 189 0.0 3.0 0.00 0.00 0.00 74 1010.6
20260905060925 82 184 1.0 4.0 0.00 0.00 0.00 73 1010.6
20260905060004 82 175 1.0 5.0 0.00 0.00 0.00 72 1010.6
20260905055404 82 169 1.0 5.0 0.00 0.00 0.00 72 1010.6
20260905054504 83 166 2.0 5.0 0.00 0.00 0.00 71 1010.4
20260905053604 83 169 2.0 5.0 0.00 0.00 0.00 71 1010.3
20260905052725 83 173 2.0 5.0 0.00 0.00 0.00 70 1010.3
20260905051804 84 179 1.0 4.0 0.00 0.00 0.00 70 1010.3
20260905050904 84 167 2.0 6.0 0.00 0.00 0.00 69 1010.3
20260905050004 84 174 3.0 7.0 0.00 0.00 0.00 68 1010.1
20260905045404 84 170 3.0 7.0 0.00 0.00 0.00 68 1010.0
20260905044504 85 167 3.0 8.0 0.00 0.00 0.00 68 1010.1
20260905043604 85 167 4.0 11.0 0.00 0.00 0.00 67 1010.1
20260905042704 85 168 4.0 10.0 0.00 0.00 0.00 67 1010.1
20260905041804 85 167 4.0 10.0 0.00 0.00 0.00 66 1010.1
20260905040904 86 166 4.0 10.0 0.00 0.00 0.00 65 1010.2
20260905040004 86 162 4.0 10.0 0.00 0.00 0.00 64 1010.2
20260905035404 86 165 3.0 8.0 0.00 0.00 0.00 63 1010.3
20260905034504 86 161 4.0 8.0 0.00 0.00 0.00 62 1010.3
20260905033604 87 163 5.0 10.0 0.00 0.00 0.00 61 1010.2
20260905032704 87 163 5.0 11.0 0.00 0.00 0.00 60 1010.2
20260905031804 87 165 4.0 12.0 0.00 0.00 0.00 60 1010.2
20260905030925 88 165 4.0 9.0 0.00 0.00 0.00 59 1010.1
20260905030004 88 162 5.0 11.0 0.00 0.00 0.00 58 1010.1
20260905025404 88 165 4.0 11.0 0.00 0.00 0.00 58 1010.0
20260905024504 88 167 4.0 10.0 0.00 0.00 0.00 57 1009.9
20260905023604 89 165 4.0 9.0 0.00 0.00 0.00 56 1009.7
20260905022704 89 166 4.0 9.0 0.00 0.00 0.00 55 1009.5
20260905021804 89 161 4.0 9.0 0.00 0.00 0.00 55 1009.3
20260905020904 90 159 4.0 9.0 0.00 0.00 0.00 54 1009.2
20260905020004 90 153 3.0 8.0 0.00 0.00 0.00 53 1009.0
20260905015404 90 152 3.0 7.0 0.00 0.00 0.00 52 1008.9
20260905014504 91 151 4.0 9.0 0.00 0.00 0.00 52 1008.8
20260905013604 91 148 4.0 9.0 0.00 0.00 0.00 51 1008.6
20260905012704 91 149 4.0 9.0 0.00 0.00 0.00 51 1008.5
20260905011804 92 151 3.0 7.0 0.00 0.00 0.00 50 1008.4
20260905010904 92 149 4.0 9.0 0.00 0.00 0.00 50 1008.4
20260905010025 92 150 4.0 9.0 0.00 0.00 0.00 49 1008.4
20260905005404 93 150 3.0 8.0 0.00 0.00 0.00 48 1008.3
20260905004504 93 157 4.0 8.0 0.00 0.00 0.00 48 1008.1
20260905003604 94 154 4.0 9.0 0.00 0.00 0.00 48 1008.1
20260905002704 94 154 3.0 10.0 0.00 0.00 0.00 47 1007.9
20260905001804 95 145 4.0 10.0 0.00 0.00 0.00 47 1007.8
20260905000904 95 144 5.0 13.0 0.00 0.00 0.00 46 1007.8
20260905000004 96 144 5.0 12.0 0.00 0.00 0.00 45 1007.7
20260904235425 96 148 6.0 13.0 0.00 0.00 0.00 45 1007.7
20260904234504 97 156 5.0 12.0 0.00 0.00 0.00 44 1007.7
20260904233604 97 159 4.0 10.0 0.00 0.00 0.00 44 1007.7
20260904232704 96 166 5.0 11.0 0.00 0.00 0.00 43 1007.7
20260904231804 98 155 4.0 11.0 0.00 0.00 0.00 42 1007.6
20260904230904 98 152 5.0 13.0 0.00 0.00 0.00 42 1007.5
20260904230025 99 150 5.0 13.0 0.00 0.00 0.00 41 1007.6
20260904225404 99 157 5.0 11.0 0.00 0.00 0.00 39 1007.6
20260904224504 100 154 5.0 11.0 0.00 0.00 0.00 38 1007.6
20260904223604 100 157 5.0 14.0 0.00 0.00 0.00 38 1007.7
20260904222725 101 160 3.0 9.0 0.00 0.00 0.00 38 1007.7
20260904221804 100 154 3.0 10.0 0.00 0.00 0.00 39 1007.8
20260904220904 100 161 5.0 10.0 0.00 0.00 0.00 39 1007.9
20260904220004 100 154 5.0 10.0 0.00 0.00 0.00 38 1007.9
20260904215404 101 145 4.0 10.0 0.00 0.00 0.00 39 1007.9
20260904214504 101 172 5.0 10.0 0.00 0.00 0.00 41 1008.0
20260904213604 101 176 4.0 11.0 0.00 0.00 0.00 41 1008.0
20260904212725 100 165 5.0 15.0 0.00 0.00 0.00 40 1008.2
20260904211804 100 158 4.0 13.0 0.00 0.00 0.00 41 1008.4
20260904210904 101 148 5.0 13.0 0.00 0.00 0.00 40 1008.4
20260904210004 101 163 4.0 11.0 0.00 0.00 0.00 40 1008.6
20260904205404 101 188 4.0 9.0 0.00 0.00 0.00 39 1008.6
20260904204504 101 152 4.0 11.0 0.00 0.00 0.00 38 1008.7
20260904203604 100 162 4.0 10.0 0.00 0.00 0.00 40 1008.8
20260904202704 99 158 4.0 11.0 0.00 0.00 0.00 41 1009.0
20260904201804 100 158 3.0 9.0 0.00 0.00 0.00 40 1009.0
20260904200904 99 169 5.0 12.0 0.00 0.00 0.00 42 1009.1
20260904200025 99 188 5.0 11.0 0.00 0.00 0.00 43 1009.3
20260904195425 98 179 4.0 12.0 0.00 0.00 0.00 43 1009.4
20260904194504 97 191 5.0 11.0 0.00 0.00 0.00 45 1009.6